This is the latest recevied weather packets stored in our database for station/object N8WJW. If no packets are shown the sender has not sent any weather packets the latest 10 day(s).
| Time | Temp. | Humidity | Pressure | Rain* | Wind** | Luminosity | Snow |
|---|---|---|---|---|---|---|---|
| 1777641638 | 5.56° C | 98% | 1013.4 hPa | 0 mm | - | 29 W/m² | - |
| 1777641332 | 5.56° C | 97% | 1013.7 hPa | 0 mm | - | 41 W/m² | - |
| 1777641028 | 5.56° C | 98% | 1013.4 hPa | 0 mm | - | 60 W/m² | - |
| 1777640725 | 5.56° C | 98% | 1013.5 hPa | 0 mm | - | 45 W/m² | - |
| 1777640422 | 5.56° C | 98% | 1013.5 hPa | 0 mm | - | 52 W/m² | - |
| 1777640119 | 5.56° C | 98% | 1013.3 hPa | 0 mm | - | 26 W/m² | - |
| 1777639815 | 5.56° C | 97% | 1013.5 hPa | 0 mm | - | 36 W/m² | - |
| 1777639513 | 5° C | 98% | 1013.5 hPa | 0 mm | - | 37 W/m² | - |
| 1777639209 | 5° C | 97% | 1013.7 hPa | 0 mm | - | 23 W/m² | - |
| 1777638906 | 5° C | 97% | 1013.7 hPa | 0 mm | - | 25 W/m² | - |
| 1777638601 | 5° C | 97% | 1013.4 hPa | 0 mm | - | 31 W/m² | - |
| 1777638298 | 5° C | 97% | 1013.5 hPa | 0 mm | - | 25 W/m² | - |
| 1777637994 | 5° C | 97% | 1013.3 hPa | 0 mm | - | 40 W/m² | - |
| 1777637691 | 5° C | 97% | 1013.4 hPa | 0 mm | - | 48 W/m² | - |
| 1777637388 | 5° C | 97% | 1013.3 hPa | 0 mm | - | 34 W/m² | - |
| 1777637084 | 5° C | 97% | 1013.3 hPa | 0 mm | - | 18 W/m² | - |
| 1777636780 | 5° C | 97% | 1013.5 hPa | 0 mm | - | 19 W/m² | - |
| 1777636477 | 5° C | 97% | 1013.6 hPa | 0 mm | - | 11 W/m² | - |
| 1777636173 | 5° C | 97% | 1013.5 hPa | 0 mm | - | 15 W/m² | - |
| 1777635867 | 5° C | 97% | 1013.5 hPa | 0 mm | - | 25 W/m² | - |
| 1777635564 | 5° C | 97% | 1013.6 hPa | 0 mm | - | 19 W/m² | - |
| 1777635261 | 5° C | 97% | 1013.5 hPa | 0 mm | - | 16 W/m² | - |
| 1777634957 | 5° C | 97% | 1013.3 hPa | 0 mm | - | 16 W/m² | - |
| 1777634655 | 5° C | 97% | 1013.3 hPa | 0 mm | - | 22 W/m² | - |
| 1777634352 | 5° C | 97% | 1013.2 hPa | 0 mm | - | 15 W/m² | - |
* Rain latest hour (hover to see other rain measurements)
** Current wind speed in m/s (hover to see current wind gust speed)